| time (UTC) | temp F | wind direction | speed MPH | gust MPH | rain 1hr in | rain 24hr in | rain mn in | humidity % | barometer mb |
| 20260505003016 | 53 | 338 | 14.0 | 21.0 | 0.00 | 0.00 | 0.00 | 40 | 1004.9 |
| 20260505002016 | 53 | 315 | 12.0 | 21.0 | 0.00 | 0.00 | 0.00 | 39 | 1004.7 |
| 20260505001016 | 53 | 315 | 16.0 | 24.0 | 0.00 | 0.00 | 0.00 | 38 | 1004.5 |
| 20260505000016 | 54 | 338 | 16.0 | 23.0 | 0.00 | 0.00 | 0.00 | 38 | 1004.5 |
| 20260504235016 | 54 | 315 | 12.0 | 19.0 | 0.00 | 0.00 | 0.00 | 40 | 1004.6 |
| 20260504234016 | 54 | 315 | 16.0 | 21.0 | 0.00 | 0.00 | 0.00 | 39 | 1004.3 |
| 20260504233016 | 55 | 315 | 13.0 | 19.0 | 0.00 | 0.00 | 0.00 | 40 | 1004.4 |
| 20260504232016 | 55 | 0 | 17.0 | 25.0 | 0.00 | 0.00 | 0.00 | 40 | 1004.2 |
| 20260504231036 | 55 | 315 | 16.0 | 24.0 | 0.00 | 0.00 | 0.00 | 40 | 1003.9 |
| 20260504230016 | 56 | 338 | 17.0 | 23.0 | 0.00 | 0.00 | 0.00 | 39 | 1003.9 |
| 20260504225016 | 55 | 315 | 17.0 | 25.0 | 0.00 | 0.00 | 0.00 | 39 | 1003.8 |
| 20260504224016 | 56 | 315 | 18.0 | 25.0 | 0.00 | 0.00 | 0.00 | 39 | 1003.7 |
| 20260504223016 | 58 | 0 | 16.0 | 23.0 | 0.00 | 0.00 | 0.00 | 38 | 1003.3 |
| 20260504222016 | 58 | 315 | 17.0 | 26.0 | 0.00 | 0.00 | 0.00 | 38 | 1003.1 |
| 20260504221016 | 58 | 315 | 16.0 | 26.0 | 0.00 | 0.00 | 0.00 | 37 | 1003.2 |
| 20260504220016 | 58 | 338 | 18.0 | 24.0 | 0.00 | 0.00 | 0.00 | 37 | 1002.9 |
| 20260504215016 | 58 | 338 | 17.0 | 31.0 | 0.00 | 0.00 | 0.00 | 38 | 1002.7 |
| 20260504214016 | 58 | 315 | 18.0 | 25.0 | 0.00 | 0.00 | 0.00 | 38 | 1002.3 |
| 20260504213016 | 60 | 315 | 17.0 | 28.0 | 0.00 | 0.00 | 0.00 | 36 | 1002.2 |
| 20260504212016 | 59 | 0 | 16.0 | 26.0 | 0.00 | 0.00 | 0.00 | 37 | 1002.1 |
| 20260504211016 | 60 | 315 | 14.0 | 27.0 | 0.00 | 0.00 | 0.00 | 37 | 1002.2 |
| 20260504210016 | 60 | 338 | 17.0 | 25.0 | 0.00 | 0.00 | 0.00 | 35 | 1002.1 |
| 20260504205016 | 60 | 338 | 16.0 | 24.0 | 0.00 | 0.00 | 0.00 | 36 | 1002.2 |
| 20260504204016 | 59 | 315 | 15.0 | 20.0 | 0.00 | 0.00 | 0.00 | 35 | 1002.1 |
| 20260504203015 | 59 | 315 | 17.0 | 26.0 | 0.00 | 0.00 | 0.00 | 36 | 1002.0 |
| 20260504202036 | 60 | 315 | 18.0 | 27.0 | 0.00 | 0.00 | 0.00 | 34 | 1002.1 |
| 20260504201015 | 61 | 315 | 12.0 | 16.0 | 0.00 | 0.00 | 0.00 | 37 | 1002.2 |
| 20260504200035 | 60 | 315 | 16.0 | 23.0 | 0.00 | 0.00 | 0.00 | 35 | 1001.9 |
| 20260504195036 | 60 | 338 | 17.0 | 25.0 | 0.00 | 0.00 | 0.00 | 35 | 1001.6 |
| 20260504194015 | 60 | 315 | 12.0 | 19.0 | 0.00 | 0.00 | 0.00 | 37 | 1001.7 |
| 20260504193015 | 59 | 315 | 15.0 | 21.0 | 0.00 | 0.00 | 0.00 | 39 | 1001.8 |
| 20260504192015 | 57 | 315 | 13.0 | 22.0 | 0.00 | 0.00 | 0.00 | 41 | 1001.8 |
| 20260504191015 | 58 | 293 | 16.0 | 22.0 | 0.00 | 0.00 | 0.00 | 39 | 1001.5 |
| 20260504190016 | 59 | 315 | 17.0 | 23.0 | 0.00 | 0.00 | 0.00 | 37 | 1001.5 |
| 20260504185036 | 59 | 315 | 17.0 | 26.0 | 0.00 | 0.00 | 0.00 | 34 | 1001.4 |
| 20260504184035 | 60 | 315 | 20.0 | 27.0 | 0.00 | 0.00 | 0.00 | 32 | 1001.3 |
| 20260504183015 | 61 | 293 | 19.0 | 30.0 | 0.00 | 0.00 | 0.00 | 31 | 1001.0 |
| 20260504182036 | 61 | 315 | 18.0 | 27.0 | 0.00 | 0.00 | 0.00 | 31 | 1001.0 |
| 20260504181015 | 62 | 315 | 16.0 | 29.0 | 0.00 | 0.00 | 0.00 | 32 | 1000.7 |
| 20260504180036 | 61 | 315 | 17.0 | 28.0 | 0.00 | 0.00 | 0.00 | 31 | 1000.6 |
| 20260504175016 | 62 | 315 | 15.0 | 25.0 | 0.00 | 0.00 | 0.00 | 32 | 1000.4 |
| 20260504174015 | 62 | 315 | 18.0 | 31.0 | 0.00 | 0.00 | 0.00 | 32 | 1000.4 |
| 20260504173015 | 63 | 0 | 15.0 | 23.0 | 0.00 | 0.00 | 0.00 | 33 | 1000.2 |
| 20260504172015 | 62 | 315 | 15.0 | 21.0 | 0.00 | 0.00 | 0.00 | 33 | 1000.0 |
| 20260504171015 | 61 | 315 | 15.0 | 25.0 | 0.00 | 0.00 | 0.00 | 35 | 1000.0 |
| 20260504151017 | 60 | 315 | 14.0 | 19.0 | 0.00 | 0.00 | 0.00 | 41 | 999.5 |
| 20260504141037 | 61 | 315 | 14.0 | 22.0 | 0.00 | 0.00 | 0.00 | 46 | 999.3 |
| 20260504081036 | 53 | 248 | 5.0 | 7.0 | 0.00 | 0.00 | 0.00 | 54 | 999.7 |
| 20260504050016 | 50 | 0.0 | 2.0 | 0.00 | 0.00 | 0.00 | 56 | 1002.5 | |
| 20260504045016 | 49 | 203 | 1.0 | 2.0 | 0.00 | 0.00 | 0.00 | 56 | 1002.6 |
| 20260504044017 | 49 | 0.0 | 1.0 | 0.00 | 0.00 | 0.00 | 57 | 1002.7 | |
| 20260504043016 | 49 | 0.0 | 2.0 | 0.00 | 0.00 | 0.00 | 57 | 1002.9 | |
| 20260504042016 | 49 | 203 | 2.0 | 2.0 | 0.00 | 0.00 | 0.00 | 57 | 1003.0 |
| 20260504041017 | 49 | 180 | 1.0 | 2.0 | 0.00 | 0.00 | 0.00 | 58 | 1003.1 |
| 20260504040016 | 49 | 180 | 1.0 | 1.0 | 0.00 | 0.00 | 0.00 | 57 | 1003.4 |
| 20260504035017 | 49 | 203 | 1.0 | 1.0 | 0.00 | 0.00 | 0.00 | 59 | 1003.5 |
| 20260504034016 | 50 | 203 | 1.0 | 2.0 | 0.00 | 0.00 | 0.00 | 56 | 1003.7 |
| 20260504033017 | 51 | 0.0 | 0.0 | 0.00 | 0.00 | 0.00 | 55 | 1003.9 | |
| 20260504032037 | 51 | 0.0 | 0.0 | 0.00 | 0.00 | 0.00 | 54 | 1004.1 | |
| 20260504031016 | 51 | 0.0 | 0.0 | 0.00 | 0.00 | 0.00 | 54 | 1004.2 | |
| 20260504030016 | 52 | 0.0 | 0.0 | 0.00 | 0.00 | 0.00 | 52 | 1004.2 | |
| 20260504025017 | 52 | 0.0 | 0.0 | 0.00 | 0.00 | 0.00 | 50 | 1004.1 | |
| 20260504024016 | 53 | 0.0 | 1.0 | 0.00 | 0.00 | 0.00 | 49 | 1004.2 | |
| 20260504023017 | 54 | 0.0 | 1.0 | 0.00 | 0.00 | 0.00 | 47 | 1004.2 | |
| 20260504022016 | 55 | 180 | 1.0 | 2.0 | 0.00 | 0.00 | 0.00 | 46 | 1004.2 |
| 20260504021016 | 57 | 270 | 1.0 | 3.0 | 0.00 | 0.00 | 0.00 | 43 | 1004.3 |
| 20260504020017 | 59 | 0.0 | 2.0 | 0.00 | 0.00 | 0.00 | 40 | 1004.5 | |
| 20260504015016 | 62 | 270 | 1.0 | 2.0 | 0.00 | 0.00 | 0.00 | 35 | 1004.5 |
| 20260504014016 | 64 | 270 | 1.0 | 2.0 | 0.00 | 0.00 | 0.00 | 33 | 1004.8 |
| 20260504013056 | 64 | 270 | 1.0 | 2.0 | 0.00 | 0.00 | 0.00 | 33 | 1004.8 |
| 20260504012016 | 65 | 270 | 1.0 | 2.0 | 0.00 | 0.00 | 0.00 | 32 | 1004.8 |
| 20260504011016 | 66 | 270 | 3.0 | 4.0 | 0.00 | 0.00 | 0.00 | 31 | 1004.8 |
| 20260504010016 | 66 | 293 | 4.0 | 6.0 | 0.00 | 0.00 | 0.00 | 30 | 1004.8 |
| 20260504005016 | 67 | 0 | 7.0 | 10.0 | 0.00 | 0.00 | 0.00 | 29 | 1004.8 |
| 20260504004016 | 68 | 293 | 7.0 | 10.0 | 0.00 | 0.00 | 0.00 | 29 | 1004.7 |